Faribault, MN

11:06 AM CDT on July 23, 2017 (GMT -0500)
Faribault Municipal

Weather History for KFBL - June, 2013

Change the Weather History Date:

Thursday, June 6, 2013

  Actual Average Record
Temperature  
Mean Temperature 53 °F -  
Max Temperature 55 °F 78 °F 92 °F (1950)
Min Temperature 51 °F 53 °F 37 °F (1983)
Degree Days  
Heating Degree Days 12    
Growing Degree Days 3 (Base 50)    
Moisture  
Dew Point 53 °F    
Average Humidity 98    
Maximum Humidity 100    
Minimum Humidity 94    
Precipitation  
Precipitation 0.00 in - - ()
Sea Level Pressure  
Sea Level Pressure 29.99 in    
Wind  
Wind Speed 5 mph (North)    
Max Wind Speed 9 mph    
Max Gust Speed -    
Visibility 7 miles    
Events Rain    
Averages and records for this station are not official NWS values.
T = Trace of Precipitation, MM = Missing Value Source: NWS Daily Summary

Daily Weather History Graph

Daily Weather History Graph

Search for Another Location

Airport or City:

Trip Planner

Search our weather history database for the weather conditions in past years. The results will help you decide how hot, cold, wet, or windy it might be!

Date:

Astronomy

Jun. 06, 2013 Rise Set
Actual Time 5:29 AM CDT 8:54 PM CDT
Civil Twilight 4:53 AM CDT 9:30 PM CDT
Nautical Twilight 4:06 AM CDT 10:17 PM CDT
Astronomical Twilight 3:07 AM CDT 11:17 PM CDT
Moon 4:15 AM CDT (6/6) 7:13 PM CDT (6/6)
Length of Visible Light 16h 36m
Length of Day
15h 24m
Waning Crescent, 3% of the Moon is Illuminated
Jun 6
Waning Crescent
Jun 8
New
Jun 16
First Quarter
Jun 23
Full
Jun 29
Last Quarter

Hourly Weather History & Observations

Time (CDT) Temp. Dew Point Humidity Pressure Visibility Wind Dir Wind Speed Gust Speed Precip Events Conditions
12:14 AM 55.4 °F 53.6 °F 94% 29.97 in 7.0 mi North 5.8 mph - N/A   Overcast
12:34 AM 55.4 °F 55.4 °F 100% 29.97 in 7.0 mi NNE 3.5 mph - N/A   Overcast
12:54 AM 55.4 °F 55.4 °F 100% 29.97 in 7.0 mi North 4.6 mph - N/A   Overcast
1:14 AM 55.4 °F 53.6 °F 94% 29.97 in 10.0 mi North 5.8 mph - N/A   Overcast
1:33 AM 55.4 °F 53.6 °F 94% 29.97 in 10.0 mi NNE 4.6 mph - N/A   Overcast
1:54 AM 55.4 °F 53.6 °F 94% 29.97 in 10.0 mi NNE 4.6 mph - N/A   Overcast
2:14 AM 55.4 °F 53.6 °F 94% 29.97 in 10.0 mi North 3.5 mph - N/A   Overcast
2:34 AM 55.4 °F 53.6 °F 94% 29.97 in 10.0 mi North 3.5 mph - N/A   Overcast
2:54 AM 55.4 °F 53.6 °F 94% 29.96 in 10.0 mi NNW 3.5 mph - N/A   Overcast
3:14 AM 53.6 °F 53.6 °F 100% 29.96 in 10.0 mi North 4.6 mph - N/A   Overcast
3:34 AM 53.6 °F 53.6 °F 100% 29.96 in 10.0 mi North 6.9 mph - N/A   Overcast
3:54 AM 53.6 °F 53.6 °F 100% 29.96 in 10.0 mi North 5.8 mph - N/A   Overcast
4:14 AM 53.6 °F 53.6 °F 100% 29.96 in 10.0 mi NNW 3.5 mph - N/A   Overcast
4:34 AM 53.6 °F 53.6 °F 100% 29.96 in 10.0 mi North 6.9 mph - N/A   Overcast
4:54 AM 53.6 °F 53.6 °F 100% 29.96 in 10.0 mi NNW 4.6 mph - N/A   Overcast
5:14 AM 53.6 °F 53.6 °F 100% 29.96 in 10.0 mi NNW 6.9 mph - N/A   Overcast
5:34 AM 53.6 °F 53.6 °F 100% 29.96 in 7.0 mi North 5.8 mph - N/A   Overcast
5:54 AM 53.6 °F 51.8 °F 94% 29.96 in 7.0 mi NNW 6.9 mph - N/A   Overcast
6:13 AM 53.6 °F 51.8 °F 94% 29.96 in 5.0 mi North 5.8 mph - N/A   Overcast
6:34 AM 53.6 °F 51.8 °F 94% 29.96 in 5.0 mi NNW 5.8 mph - N/A   Overcast
6:54 AM 51.8 °F 51.8 °F 100% 29.97 in 5.0 mi North 8.1 mph - N/A   Overcast
7:14 AM 51.8 °F 51.8 °F 100% 29.97 in 7.0 mi North 8.1 mph - N/A   Overcast
7:34 AM 51.8 °F 51.8 °F 100% 29.97 in 7.0 mi North 5.8 mph - N/A   Overcast
7:53 AM 51.8 °F 51.8 °F 100% 29.97 in 7.0 mi NNW 6.9 mph - N/A   Overcast
8:14 AM 51.8 °F 51.8 °F 100% 29.98 in 5.0 mi NNW 6.9 mph - N/A   Overcast
8:34 AM 51.8 °F 51.8 °F 100% 29.98 in 4.0 mi NNW 5.8 mph - N/A   Overcast
8:54 AM 51.8 °F 51.8 °F 100% 29.98 in 2.0 mi NNW 5.8 mph - N/A   Overcast
9:14 AM 51.8 °F 51.8 °F 100% 29.99 in 1.5 mi NNW 6.9 mph - N/A   Overcast
9:34 AM 51.8 °F 51.8 °F 100% 29.99 in 1.5 mi North 4.6 mph - N/A   Overcast
9:54 AM 51.8 °F 51.8 °F 100% 30.00 in 1.0 mi NNW 6.9 mph - N/A   Overcast
10:14 AM 51.8 °F 51.8 °F 100% 30.00 in 1.2 mi NNW 5.8 mph - N/A   Overcast
10:34 AM 51.8 °F 51.8 °F 100% 29.99 in 0.8 mi NNW 9.2 mph - N/A Rain Light Rain
10:54 AM 51.8 °F 51.8 °F 100% 29.99 in 1.0 mi NNW 6.9 mph - N/A   Overcast
11:13 AM 51.8 °F 51.8 °F 100% 30.00 in 1.2 mi NNW 6.9 mph - N/A   Overcast
11:34 AM 51.8 °F 51.8 °F 100% 30.00 in 1.5 mi NNW 8.1 mph - N/A   Overcast
11:54 AM 51.8 °F 51.8 °F 100% 30.00 in 2.0 mi NNW 5.8 mph - N/A   Overcast
12:14 PM 51.8 °F 51.8 °F 100% 30.00 in 3.0 mi NNW 6.9 mph - N/A   Overcast
12:34 PM 53.6 °F 51.8 °F 94% 30.00 in 4.0 mi North 5.8 mph - N/A   Overcast
12:54 PM 53.6 °F 53.6 °F 100% 30.00 in 4.0 mi North 6.9 mph - N/A   Overcast
1:14 PM 53.6 °F 51.8 °F 94% 30.00 in 5.0 mi NNE 8.1 mph - N/A   Overcast
1:34 PM 53.6 °F 51.8 °F 94% 30.00 in 4.0 mi NNW 8.1 mph - N/A   Overcast
1:54 PM 53.6 °F 51.8 °F 94% 30.00 in 4.0 mi NNW 8.1 mph - N/A   Overcast
2:14 PM 53.6 °F 51.8 °F 94% 30.00 in 5.0 mi North 6.9 mph - N/A   Overcast
2:34 PM 53.6 °F 53.6 °F 100% 30.00 in 5.0 mi North 6.9 mph - N/A   Overcast
2:54 PM 53.6 °F 53.6 °F 100% 30.00 in 7.0 mi NNW 6.9 mph - N/A   Overcast
3:14 PM 53.6 °F 53.6 °F 100% 30.00 in 7.0 mi NNW 6.9 mph - N/A   Overcast
3:33 PM 55.4 °F 53.6 °F 94% 30.00 in 10.0 mi North 6.9 mph - N/A   Overcast
3:54 PM 55.4 °F 53.6 °F 94% 30.00 in 10.0 mi North 8.1 mph - N/A   Overcast
4:14 PM 55.4 °F 53.6 °F 94% 30.00 in 10.0 mi NNW 4.6 mph - N/A   Overcast
4:34 PM 55.4 °F 53.6 °F 94% 30.00 in 10.0 mi North 6.9 mph - N/A   Overcast
4:54 PM 55.4 °F 53.6 °F 94% 30.00 in 10.0 mi North 4.6 mph - N/A   Overcast
5:14 PM 55.4 °F 53.6 °F 94% 30.01 in 10.0 mi North 4.6 mph - N/A   Overcast
5:34 PM 55.4 °F 53.6 °F 94% 30.01 in 10.0 mi North 4.6 mph - N/A   Overcast
5:54 PM 55.4 °F 53.6 °F 94% 30.01 in 10.0 mi North 3.5 mph - N/A   Overcast
6:14 PM 55.4 °F 53.6 °F 94% 30.01 in 10.0 mi North 4.6 mph - N/A   Overcast
6:34 PM 55.4 °F 53.6 °F 94% 30.01 in 7.0 mi North 3.5 mph - N/A   Overcast
6:53 PM 55.4 °F 53.6 °F 94% 30.01 in 7.0 mi North 4.6 mph - N/A   Overcast
7:14 PM 55.4 °F 53.6 °F 94% 30.01 in 10.0 mi North 5.8 mph - N/A   Overcast
7:34 PM 55.4 °F 53.6 °F 94% 30.01 in 10.0 mi North 4.6 mph - N/A   Overcast
7:54 PM 55.4 °F 53.6 °F 94% 30.01 in 10.0 mi NNE 3.5 mph - N/A   Overcast
8:14 PM 53.6 °F 53.6 °F 100% 30.01 in 10.0 mi Calm Calm - N/A   Overcast
8:33 PM 53.6 °F 53.6 °F 100% 30.01 in 10.0 mi Calm Calm - N/A   Overcast
8:54 PM 53.6 °F 53.6 °F 100% 30.01 in 7.0 mi Calm Calm - N/A Rain Rain
9:14 PM 53.6 °F 53.6 °F 100% 30.02 in 10.0 mi Calm Calm - N/A   Overcast
9:34 PM 53.6 °F 53.6 °F 100% 30.02 in 10.0 mi NNW 3.5 mph - N/A   Overcast
9:54 PM 53.6 °F 53.6 °F 100% 30.03 in 7.0 mi NNW 4.6 mph - N/A   Overcast
10:13 PM 53.6 °F 53.6 °F 100% 30.03 in 10.0 mi NNW 4.6 mph - N/A   Overcast
10:34 PM 53.6 °F 53.6 °F 100% 30.03 in 7.0 mi NNW 3.5 mph - N/A   Overcast
10:54 PM 53.6 °F 53.6 °F 100% 30.03 in 10.0 mi North 4.6 mph - N/A   Overcast
11:14 PM 53.6 °F 53.6 °F 100% 30.03 in 10.0 mi Calm Calm - N/A   Overcast
11:34 PM 53.6 °F 53.6 °F 100% 30.03 in 10.0 mi North 3.5 mph - N/A   Overcast
11:54 PM 53.6 °F 51.8 °F 94% 30.02 in 10.0 mi Calm Calm - N/A   Mostly Cloudy